[[{"header":{"parameterUnit":"m.s-1","parameterCategory":2,"la1":30.2991,"la2":30.254,"lo1":-89.0895,"lo2":-89.0444,"dy":0.0017,"dx":0.0017,"nx":28,"ny":28,"refTime":"2025-09-13T21:00:00:Z","depth":"0","parameterNumber":2,"parameterNumberName":"U-component_of_CURRENTS"},"data":[0,0,0,0,0,0,0,0,0,0,0,0,0,0,0,0,0,0,0,0,0,0,0,0,0,0,0,0,0,0,0,0,0,0,0,0,0,0,0,0,0,0,0,0,0,0,0,0,0,0,0,0,0,0,0,0,0,0,-0.2947,-0.2947,0,-0.289,-0.2889,-0.2888,-0.2777,-0.2775,-0.2773,-0.2772,-0.2639,-0.2637,-0.2635,0,0,0,0,0,0,0,0,0,0,0,0,0,-0.2923,-0.2924,-0.2947,-0.2947,-0.2947,-0.289,-0.2889,-0.2888,-0.2778,-0.2775,-0.2773,-0.2771,-0.2639,-0.2637,-0.2635,0,0,0,0,0,0,0,0,0,0,0,0,0,-0.2904,-0.2925,-0.2948,-0.2887,-0.2881,-0.2891,-0.2889,-0.2888,-0.2778,-0.2775,-0.2772,-0.277,-0.264,-0.2637,-0.2635,-0.2675,0,0,-0.2627,-0.2625,0,0,0,0,0,0,0,0,-0.2905,-0.2905,-0.2896,-0.2891,-0.2885,-0.2841,-0.2832,-0.2814,-0.2779,-0.2814,-0.2772,-0.2768,-0.2703,-0.2695,-0.2688,-0.2669,-0.2663,-0.2626,-0.2625,-0.2624,-0.2623,0,0,0,0,0,0,0,-0.2907,-0.2906,-0.2922,-0.2896,-0.2889,-0.285,-0.2844,-0.2828,-0.2772,-0.2811,-0.2803,-0.2803,-0.2699,-0.269,-0.2683,-0.2661,-0.2626,-0.2624,-0.2622,-0.2621,-0.2678,-0.2681,0,0,0,0,0,0,-0.2926,-0.2908,-0.2923,-0.292,-0.2892,-0.2853,-0.2846,-0.2855,-0.2773,-0.2759,-0.2805,-0.2798,-0.2696,-0.2687,-0.2678,-0.2731,-0.2624,-0.2621,-0.262,-0.2675,-0.2679,-0.2682,0,0,0,0,0,0,-0.2926,-0.2928,-0.2926,-0.2914,-0.2911,-0.2857,-0.2868,-0.2856,-0.2836,-0.277,-0.2754,-0.2796,-0.2694,-0.2682,-0.268,-0.2724,-0.262,-0.2618,-0.2672,-0.2676,-0.2681,-0.2829,0,0,0,0,0,0,-0.2925,-0.2929,-0.2938,-0.2916,-0.2913,-0.296,-0.287,-0.2857,-0.2842,-0.2831,-0.2758,-0.2743,-0.2691,-0.2685,-0.2677,-0.2718,-0.2615,-0.2668,-0.2674,-0.2679,-0.282,-0.2838,-0.2854,0,0,0,0,0,-0.2925,-0.2961,-0.2939,-0.294,-0.2929,-0.2963,-0.2959,-0.2906,-0.2845,-0.287,-0.2811,-0.2745,-0.2716,-0.2686,-0.2676,-0.2717,-0.2665,-0.2672,-0.2679,-0.2813,-0.2835,-0.2853,0,0,0,0,0,0,-0.2954,-0.2953,-0.2927,-0.2959,-0.2971,-0.2946,-0.2955,-0.2917,-0.2891,-0.2863,-0.2783,-0.2768,-0.279,-0.2741,-0.2709,-0.2755,-0.2681,-0.2686,-0.2786,-0.2806,-0.2823,-0.2761,-0.2613,0,0,0,0,0,-0.2968,-0.2988,-0.2991,-0.3014,-0.3025,-0.2988,-0.2988,-0.2961,-0.2936,-0.2918,-0.2872,-0.2826,-0.2818,-0.2798,-0.2789,-0.2807,-0.2708,-0.283,-0.2847,-0.2861,-0.2808,-0.2695,-0.2694,-0.2705,-0.2705,-0.2705,0,0,-0.2979,-0.2984,-0.299,-0.302,-0.3012,-0.3055,-0.298,-0.2998,-0.3012,-0.2912,-0.2915,-0.2891,-0.2842,-0.2871,-0.2875,-0.2826,-0.2828,-0.287,-0.2882,-0.2819,-0.2701,-0.2699,-0.2697,-0.271,-0.2709,-0.2709,0,0,-0.3038,-0.3026,-0.3072,-0.3096,-0.3111,-0.3099,-0.3111,-0.3104,-0.3079,-0.31,-0.3033,-0.3022,-0.3012,-0.2977,-0.2958,-0.3058,-0.2932,-0.3076,-0.309,-0.2985,-0.298,-0.2975,-0.2926,-0.2915,-0.3069,-0.3069,-0.3069,0,-0.3047,-0.3074,-0.3094,-0.3155,-0.3135,-0.3127,-0.3148,-0.3174,-0.3163,-0.3107,-0.3121,-0.3049,-0.3054,-0.3013,-0.3079,-0.309,-0.3013,-0.3019,-0.2999,-0.2992,-0.2983,-0.2933,-0.2919,-0.3077,-0.3076,-0.3075,-0.3075,0,-0.3153,-0.3152,-0.3183,-0.3234,-0.3259,-0.3261,-0.3294,-0.3301,-0.3263,-0.3234,-0.3189,-0.3189,-0.3107,-0.3164,-0.3164,-0.3121,-0.3087,-0.3045,-0.2935,-0.299,-0.2937,-0.2919,-0.3089,-0.3086,-0.3083,-0.3081,0,0,-0.3157,-0.3225,-0.3224,-0.3173,-0.3252,-0.3239,-0.3316,-0.3283,-0.3221,-0.3264,-0.3158,-0.3229,-0.3165,-0.314,-0.3134,-0.3087,-0.3062,-0.3056,-0.3047,-0.2985,-0.2846,-0.2774,-0.2747,-0.2996,-0.2992,-0.2989,-0.2859,0,-0.3175,-0.3204,-0.3277,-0.325,-0.3208,-0.3236,-0.3268,-0.3263,-0.3245,-0.3183,-0.3162,-0.3105,-0.3177,-0.3128,-0.3103,-0.3063,-0.3006,-0.3101,-0.2818,-0.281,-0.2718,-0.272,-0.2609,-0.2476,-0.2841,-0.2838,-0.2835,0,-0.3211,-0.3179,-0.315,-0.3072,-0.3066,-0.3098,-0.2999,-0.3043,-0.3032,-0.3012,-0.297,-0.2956,-0.2943,-0.2977,-0.2889,-0.2938,-0.2892,-0.2866,-0.2858,-0.2697,-0.27,-0.2466,-0.2427,-0.2429,-0.2806,-0.2809,-0.2811,0,-0.3018,-0.3055,-0.296,-0.2955,-0.2951,-0.2919,-0.2928,-0.294,-0.293,-0.2888,-0.2862,-0.2809,-0.2787,-0.2718,-0.2757,-0.2788,-0.2632,-0.265,-0.2527,-0.2525,-0.232,-0.2303,-0.2207,-0.2507,-0.2508,-0.2508,-0.2508,0,-0.2891,-0.2803,-0.285,-0.2761,-0.2666,-0.2734,-0.2654,-0.2677,-0.2701,-0.2671,-0.2737,-0.2698,-0.2714,-0.2672,-0.2671,-0.2558,-0.255,-0.2493,-0.2455,-0.2384,-0.2375,-0.2275,-0.2326,-0.2503,-0.2504,-0.2505,-0.2506,0,-0.2651,-0.2686,-0.2575,-0.2553,-0.2559,-0.2487,-0.2555,-0.2511,-0.2562,-0.2539,-0.2533,-0.2594,-0.254,-0.2548,-0.2452,-0.2437,-0.229,-0.2284,-0.2243,-0.22,-0.2077,-0.2142,-0.1964,-0.1894,-0.2099,-0.2096,-0.2094,0,-0.2516,-0.2425,-0.2417,-0.2394,-0.2383,-0.2344,-0.2342,-0.2421,-0.2428,-0.2474,-0.2449,-0.2421,-0.238,-0.2254,-0.2188,-0.2086,-0.214,-0.1939,-0.1964,-0.2015,-0.206,-0.2137,-0.2098,-0.1798,-0.1793,-0.1789,-0.1786,0,-0.2231,-0.2259,-0.2193,-0.2172,-0.2162,-0.2158,-0.2174,-0.2173,-0.2267,-0.2268,-0.2256,-0.2218,-0.2124,-0.1985,-0.1883,-0.1822,-0.1899,-0.1852,-0.1872,-0.1767,-0.1867,-0.18,-0.2009,-0.1751,-0.1755,-0.1757,-0.1759,-0.1761,-0.2056,-0.2006,-0.1985,-0.1955,-0.1964,-0.1959,-0.1906,-0.1965,-0.1957,-0.1943,-0.2024,-0.1928,-0.187,-0.1696,-0.1628,-0.1504,-0.1601,-0.1477,-0.1544,-0.1613,-0.1548,-0.1711,-0.1432,-0.1433,-0.1435,-0.1436,-0.1437,0,-0.1849,-0.1824,-0.1781,-0.1754,-0.1709,-0.1778,-0.178,-0.1718,-0.1666,-0.1692,-0.1661,-0.1594,-0.1469,-0.1427,-0.1323,-0.1247,-0.1233,-0.1239,-0.1322,-0.1286,-0.1367,-0.1356,-0.1083,-0.1083,-0.1083,-0.1083,-0.1083,-0.1083,-0.1733,-0.1635,-0.1634,-0.151,-0.1497,-0.1392,-0.1361,-0.1311,-0.1291,-0.1205,-0.1174,-0.112,-0.1198,-0.1371,-0.1273,-0.119,-0.1198,-0.1155,-0.1202,-0.1296,-0.1325,-0.1353,-0.1352,-0.1083,-0.1083,-0.1047,-0.1047,-0.1047]},{"header":{"parameterUnit":"m.s-1","parameterCategory":2,"la1":30.2991,"la2":30.254,"lo1":-89.0895,"lo2":-89.0444,"dy":0.0017,"dx":0.0017,"nx":28,"ny":28,"refTime":"2025-09-13T21:00:00:Z","depth":"0","parameterNumber":3,"parameterNumberName":"V-component_of_CURRENTS"},"data":[0,0,0,0,0,0,0,0,0,0,0,0,0,0,0,0,0,0,0,0,0,0,0,0,0,0,0,0,0,0,0,0,0,0,0,0,0,0,0,0,0,0,0,0,0,0,0,0,0,0,0,0,0,0,0,0,0,0,-0.0151,-0.015,0,-0.007,-0.0069,-0.0069,-0.0013,-0.0012,-0.0012,-0.0011,0.0085,0.0088,0.009,0,0,0,0,0,0,0,0,0,0,0,0,0,-0.0268,-0.0266,-0.0151,-0.015,-0.0149,-0.0071,-0.0069,-0.0068,-0.0013,-0.0012,-0.0012,-0.0011,0.0085,0.0087,0.009,0,0,0,0,0,0,0,0,0,0,0,0,0,-0.0205,-0.0265,-0.0151,-0.0112,-0.0107,-0.0071,-0.0069,-0.0068,-0.0013,-0.0012,-0.0012,-0.0011,0.0084,0.0087,0.009,0.0098,0,0,0.01,0.0102,0,0,0,0,0,0,0,0,-0.0209,-0.0201,-0.0118,-0.0114,-0.0109,-0.0051,-0.0075,-0.0012,-0.0013,-0.0049,-0.0011,-0.0011,0.0041,0.0048,0.0061,0.0102,0.0106,0.0101,0.0103,0.0104,0.0105,0,0,0,0,0,0,0,-0.0213,-0.0204,-0.0119,-0.0117,-0.0112,-0.0102,-0.0092,-0.0063,-0.0008,-0.0046,-0.0041,-0.0033,0.0044,0.0058,0.0064,0.0108,0.01,0.0103,0.0105,0.0107,0.015,0.015,0,0,0,0,0,0,-0.0223,-0.0208,-0.0121,-0.0117,-0.0159,-0.01,-0.009,-0.007,-0.0009,0.0001,-0.0033,-0.003,0.0052,0.006,0.0068,0.0095,0.0104,0.0107,0.0109,0.0151,0.015,0.0149,0,0,0,0,0,0,-0.0226,-0.0216,-0.0125,-0.0161,-0.0149,-0.0099,-0.0078,-0.0069,-0.0055,0.0,0.0011,-0.0028,0.0053,0.0063,0.0093,0.0099,0.0108,0.0111,0.0152,0.0151,0.015,0.0141,0,0,0,0,0,0,-0.0229,-0.0217,-0.0213,-0.0162,-0.0147,-0.0109,-0.0078,-0.0068,-0.005,-0.0046,0.0008,0.0018,0.0054,0.0088,0.0096,0.0104,0.0114,0.0153,0.0152,0.015,0.0143,0.014,0.0138,0,0,0,0,0,-0.0233,-0.0234,-0.0212,-0.0202,-0.014,-0.011,-0.0102,-0.0064,-0.0051,-0.0049,-0.001,0.0016,0.0084,0.009,0.01,0.0109,0.0154,0.0152,0.015,0.0144,0.014,0.0138,0,0,0,0,0,0,-0.0288,-0.0227,-0.0202,-0.0185,-0.0151,-0.01,-0.01,-0.0072,-0.004,-0.0038,0.0015,0.0027,0.0054,0.0072,0.0078,0.0112,0.0119,0.012,0.0111,0.0108,0.0106,0.0104,0.0117,0,0,0,0,0,-0.0296,-0.0278,-0.0221,-0.0211,-0.0197,-0.015,-0.0135,-0.0108,-0.0071,-0.0056,-0.0015,0.002,0.0053,0.0073,0.0101,0.0123,0.0146,0.0129,0.0127,0.0125,0.0127,0.0143,0.0143,0.0143,0.0143,0.0143,0,0,-0.0316,-0.0281,-0.0271,-0.0222,-0.0195,-0.0177,-0.014,-0.0123,-0.0102,-0.0052,-0.002,0.0013,0.0054,0.0083,0.0096,0.0103,0.0141,0.0123,0.0121,0.0124,0.0141,0.0142,0.0142,0.0142,0.0142,0.0143,0,0,-0.0358,-0.0315,-0.0318,-0.0288,-0.0248,-0.021,-0.0208,-0.0156,-0.0128,-0.0096,-0.0054,-0.001,0.0027,0.0077,0.0102,0.0099,0.0124,0.0088,0.0085,0.0101,0.0101,0.0102,0.0154,0.0159,0.0091,0.0091,0.0091,0,-0.0389,-0.0372,-0.0318,-0.0312,-0.0293,-0.0228,-0.0228,-0.0186,-0.013,-0.0113,-0.0094,-0.0023,0.0032,0.0076,0.0089,0.01,0.0107,0.01,0.01,0.0101,0.0102,0.0154,0.016,0.009,0.009,0.009,0.009,0,-0.043,-0.0411,-0.0414,-0.0373,-0.0346,-0.0337,-0.0268,-0.024,-0.0199,-0.0156,-0.0114,-0.0041,-0.0001,0.0028,0.0071,0.0101,0.0106,0.0094,0.0112,0.0102,0.0157,0.0164,0.0089,0.0089,0.009,0.009,0,0,-0.0518,-0.0455,-0.0457,-0.0449,-0.0377,-0.0366,-0.0322,-0.0272,-0.0264,-0.019,-0.0175,-0.0074,-0.0042,-0.0012,0.0041,0.0082,0.0136,0.0091,0.0092,0.0152,0.0181,0.0233,0.0245,0.0105,0.0105,0.0106,0.0226,0,-0.0572,-0.0574,-0.0521,-0.0521,-0.0514,-0.0435,-0.0408,-0.0351,-0.0298,-0.0264,-0.0168,-0.0134,-0.0057,-0.0042,0.0014,0.0095,0.0147,0.0106,0.0173,0.0177,0.0231,0.0252,0.0314,0.0428,0.0233,0.0234,0.0235,0,-0.0636,-0.0623,-0.0629,-0.0592,-0.0587,-0.0572,-0.0527,-0.0495,-0.0411,-0.0375,-0.031,-0.0246,-0.0138,-0.0098,0.0053,0.001,0.0098,0.0168,0.0172,0.0227,0.024,0.0401,0.0448,0.0628,0.0245,0.0244,0.0243,0,-0.0724,-0.0706,-0.0712,-0.0696,-0.0637,-0.0633,-0.0606,-0.0535,-0.0513,-0.0445,-0.0425,-0.0318,-0.0251,-0.0148,0.0042,0.0026,0.0194,0.0186,0.0322,0.0328,0.0401,0.0411,0.0639,0.0277,0.0276,0.0276,0.0276,0,-0.0788,-0.0799,-0.076,-0.0755,-0.0783,-0.072,-0.0733,-0.0689,-0.0633,-0.0608,-0.0494,-0.0441,-0.0268,-0.0136,0.0006,0.0205,0.017,0.0338,0.036,0.0401,0.041,0.0585,0.064,0.0281,0.028,0.0279,0.0278,0,-0.0854,-0.0829,-0.0842,-0.0813,-0.0813,-0.0831,-0.0802,-0.0808,-0.0746,-0.0708,-0.0685,-0.0523,-0.0342,-0.0152,0.0049,0.0177,0.0465,0.0417,0.048,0.0507,0.0782,0.0832,0.1053,0.1176,0.0576,0.0578,0.058,0,-0.0876,-0.0886,-0.0891,-0.0911,-0.0895,-0.091,-0.0917,-0.0867,-0.0857,-0.0742,-0.0724,-0.0542,-0.0382,-0.0052,0.0194,0.0449,0.0579,0.0644,0.0636,0.0829,0.0901,0.0936,0.1025,0.0745,0.0748,0.0751,0.0752,0,-0.0906,-0.0913,-0.0919,-0.0967,-0.099,-0.1014,-0.1013,-0.1021,-0.0947,-0.0875,-0.0738,-0.0601,-0.0265,0.007,0.0395,0.0548,0.0792,0.0699,0.0878,0.1044,0.1117,0.1234,0.0657,0.0773,0.0771,0.077,0.0769,0.0768,-0.0925,-0.0953,-0.0971,-0.1017,-0.1057,-0.1094,-0.1097,-0.1068,-0.1017,-0.0853,-0.0742,-0.0421,-0.0011,0.0468,0.0637,0.1036,0.0982,0.1163,0.1209,0.1229,0.1348,0.0835,0.0977,0.0976,0.0975,0.0974,0.0974,0,-0.0935,-0.0967,-0.1017,-0.1069,-0.1122,-0.1126,-0.1138,-0.1093,-0.1004,-0.0761,-0.057,0.0025,0.0447,0.0845,0.133,0.1546,0.1596,0.1652,0.1731,0.1799,0.134,0.135,0.1604,0.1604,0.1604,0.1604,0.1604,0.1603,-0.0938,-0.098,-0.1012,-0.1099,-0.1141,-0.1161,-0.1156,-0.1057,-0.0866,-0.0437,-0.0001,0.0318,0.0844,0.1528,0.1992,0.2033,0.2239,0.22,0.2309,0.2002,0.196,0.192,0.1947,0.2323,0.2323,0.2785,0.2789,0.2792]}],[{"header":{"parameterUnit":"m.s-1","parameterCategory":2,"la1":30.2991,"la2":30.254,"lo1":-89.0895,"lo2":-89.0444,"dy":0.0017,"dx":0.0017,"nx":28,"ny":28,"refTime":"2025-09-13T21:00:00:Z","depth":"2","parameterNumber":2,"parameterNumberName":"U-component_of_CURRENTS"},"data":[0,0,0,0,0,0,0,0,0,0,0,0,0,0,0,0,0,0,0,0,0,0,0,0,0,0,0,0,0,0,0,0,0,0,0,0,0,0,0,0,0,0,0,0,0,0,0,0,0,0,0,0,0,0,0,0,0,0,-0.2287,-0.2288,0,-0.2395,-0.2397,-0.2398,-0.2427,-0.2425,-0.2424,-0.2423,-0.251,-0.2513,-0.2516,0,0,0,0,0,0,0,0,0,0,0,0,0,-0.2162,-0.2164,-0.2287,-0.2288,-0.2289,-0.2395,-0.2397,-0.2399,-0.2427,-0.2425,-0.2424,-0.2423,-0.2509,-0.2513,-0.2516,0,0,0,0,0,0,0,0,0,0,0,0,0,-0.2242,-0.2165,-0.2287,-0.2313,-0.2316,-0.2394,-0.2397,-0.2399,-0.2427,-0.2425,-0.2424,-0.2422,-0.2507,-0.2512,-0.2517,-0.2579,0,0,-0.2532,-0.2534,0,0,0,0,0,0,0,0,-0.2237,-0.2247,-0.2308,-0.2311,-0.2314,-0.2392,-0.2384,-0.2457,-0.2427,-0.2389,-0.2423,-0.2422,-0.2467,-0.2475,-0.2505,-0.2583,-0.2587,-0.2532,-0.2535,-0.2538,-0.2539,0,0,0,0,0,0,0,-0.2232,-0.2243,-0.2334,-0.2309,-0.2313,-0.2338,-0.2348,-0.2399,-0.2438,-0.2392,-0.2394,-0.2399,-0.2469,-0.25,-0.2507,-0.2588,-0.2532,-0.2537,-0.254,-0.2542,-0.2756,-0.2758,0,0,0,0,0,0,-0.2209,-0.2238,-0.2331,-0.2337,-0.2266,-0.2341,-0.2352,-0.2372,-0.2438,-0.2446,-0.2401,-0.24,-0.2493,-0.2501,-0.251,-0.2576,-0.2537,-0.2542,-0.2545,-0.2753,-0.2756,-0.2759,0,0,0,0,0,0,-0.2206,-0.2217,-0.2326,-0.2285,-0.23,-0.2344,-0.2367,-0.2375,-0.2407,-0.2444,-0.2452,-0.2423,-0.2492,-0.2503,-0.2581,-0.2579,-0.2544,-0.2549,-0.275,-0.2754,-0.2758,-0.2713,0,0,0,0,0,0,-0.2203,-0.2216,-0.2228,-0.2284,-0.2301,-0.2373,-0.2368,-0.2378,-0.241,-0.2411,-0.2466,-0.2472,-0.2492,-0.2574,-0.2586,-0.2585,-0.2553,-0.2746,-0.2752,-0.2757,-0.2711,-0.2715,-0.2719,0,0,0,0,0,-0.2198,-0.2222,-0.2229,-0.224,-0.2316,-0.2374,-0.2386,-0.2414,-0.2413,-0.2436,-0.2487,-0.247,-0.2614,-0.2581,-0.2594,-0.2594,-0.2744,-0.275,-0.2756,-0.271,-0.2715,-0.2719,0,0,0,0,0,0,-0.2187,-0.2228,-0.2237,-0.2275,-0.2318,-0.2377,-0.2401,-0.242,-0.2481,-0.2482,-0.2515,-0.2528,-0.2595,-0.2622,-0.2584,-0.2679,-0.2673,-0.2682,-0.2633,-0.2639,-0.2642,-0.2575,-0.2557,0,0,0,0,0,-0.2187,-0.2203,-0.2256,-0.2285,-0.2308,-0.2356,-0.2383,-0.2405,-0.246,-0.2484,-0.2529,-0.2582,-0.2635,-0.2656,-0.2717,-0.277,-0.2744,-0.2783,-0.2786,-0.2788,-0.2749,-0.2733,-0.2728,-0.278,-0.278,-0.2779,0,0,-0.2167,-0.2212,-0.2207,-0.2281,-0.2318,-0.2359,-0.237,-0.2415,-0.2435,-0.2485,-0.2544,-0.2606,-0.2661,-0.2723,-0.2752,-0.2736,-0.2768,-0.2796,-0.2797,-0.2756,-0.2738,-0.2732,-0.2726,-0.2784,-0.2783,-0.2782,0,0,-0.2172,-0.2203,-0.2224,-0.2268,-0.2331,-0.2364,-0.2376,-0.2446,-0.246,-0.2547,-0.2571,-0.2615,-0.274,-0.2734,-0.2757,-0.2819,-0.2799,-0.2871,-0.2813,-0.2799,-0.2792,-0.2785,-0.2751,-0.2742,-0.2857,-0.2857,-0.2857,0,-0.2155,-0.2202,-0.2239,-0.2294,-0.2317,-0.2364,-0.2395,-0.2428,-0.2512,-0.2527,-0.2567,-0.2699,-0.2726,-0.2742,-0.276,-0.2812,-0.2816,-0.278,-0.2794,-0.2787,-0.2781,-0.2748,-0.2738,-0.2855,-0.2855,-0.2856,-0.2856,0,-0.2185,-0.2222,-0.2246,-0.2315,-0.235,-0.2387,-0.2428,-0.247,-0.2515,-0.255,-0.2611,-0.2665,-0.2724,-0.2749,-0.2773,-0.275,-0.2771,-0.2804,-0.2758,-0.2771,-0.2738,-0.2728,-0.2853,-0.2854,-0.2854,-0.2855,0,0,-0.2152,-0.2238,-0.2252,-0.2278,-0.2359,-0.2394,-0.2425,-0.2467,-0.2488,-0.2564,-0.2586,-0.2645,-0.2666,-0.2689,-0.271,-0.268,-0.2631,-0.2721,-0.2721,-0.2642,-0.2599,-0.2514,-0.2495,-0.2684,-0.2682,-0.2681,-0.2592,0,-0.2164,-0.2242,-0.2283,-0.2335,-0.2368,-0.2411,-0.244,-0.248,-0.2531,-0.2575,-0.258,-0.2632,-0.2642,-0.2673,-0.2641,-0.266,-0.2605,-0.265,-0.2637,-0.2634,-0.2518,-0.248,-0.2317,-0.2217,-0.2583,-0.2581,-0.258,0,-0.2185,-0.2239,-0.2281,-0.2341,-0.2359,-0.2392,-0.2442,-0.2474,-0.2519,-0.256,-0.2584,-0.262,-0.2579,-0.2603,-0.2552,-0.2599,-0.2572,-0.2567,-0.2565,-0.2479,-0.2529,-0.2268,-0.2185,-0.2563,-0.2565,-0.2566,-0.2567,0,-0.2148,-0.2234,-0.2258,-0.2282,-0.2362,-0.2377,-0.2415,-0.247,-0.2484,-0.2531,-0.2565,-0.2561,-0.2558,-0.2536,-0.2513,-0.2548,-0.2462,-0.2512,-0.2389,-0.2384,-0.2229,-0.2212,-0.2429,-0.2429,-0.2429,-0.2429,-0.2429,0,-0.2142,-0.2165,-0.2243,-0.2265,-0.2287,-0.2355,-0.2378,-0.2423,-0.2472,-0.2479,-0.2533,-0.2526,-0.2547,-0.2517,-0.2496,-0.2396,-0.2439,-0.2334,-0.2339,-0.2215,-0.2199,-0.2497,-0.2506,-0.2426,-0.2427,-0.2427,-0.2428,0,-0.2077,-0.2135,-0.2166,-0.2247,-0.2265,-0.2278,-0.2335,-0.2353,-0.2421,-0.2427,-0.2435,-0.2483,-0.2439,-0.2433,-0.239,-0.2351,-0.2287,-0.2234,-0.2074,-0.2059,-0.2222,-0.2231,-0.208,-0.2076,-0.2073,-0.207,-0.2067,0,-0.2043,-0.2055,-0.2126,-0.2129,-0.2156,-0.2191,-0.2206,-0.2299,-0.2316,-0.2382,-0.2368,-0.2358,-0.2303,-0.2213,-0.2142,-0.2049,-0.2154,-0.1863,-0.1867,-0.2157,-0.2179,-0.2193,-0.2207,-0.1657,-0.1651,-0.1647,-0.1643,0,-0.1959,-0.1982,-0.2001,-0.2018,-0.2034,-0.2054,-0.2092,-0.2103,-0.2199,-0.2213,-0.2205,-0.217,-0.2081,-0.1915,-0.1818,-0.1756,-0.1873,-0.1764,-0.2091,-0.1778,-0.1752,-0.1777,-0.1804,-0.1602,-0.1606,-0.1609,-0.1611,-0.1613,-0.1864,-0.1848,-0.1871,-0.1868,-0.189,-0.1894,-0.1862,-0.1917,-0.1923,-0.191,-0.1983,-0.1874,-0.1848,-0.1592,-0.1495,-0.1426,-0.1559,-0.1515,-0.1531,-0.1552,-0.1526,-0.1497,-0.1292,-0.1294,-0.1296,-0.1298,-0.1299,0,-0.1729,-0.1723,-0.1718,-0.1712,-0.1679,-0.1744,-0.1754,-0.17,-0.165,-0.1667,-0.163,-0.1445,-0.1317,-0.129,-0.1105,-0.1071,-0.1082,-0.104,-0.1068,-0.1107,-0.1143,-0.11,-0.0751,-0.0749,-0.0748,-0.0746,0,0,-0.1649,-0.1591,-0.1592,-0.1494,-0.1489,-0.14,-0.1373,-0.1322,-0.1296,-0.1212,-0.1159,-0.1237,-0.1242,-0.1007,-0.0945,-0.0814,-0.0952,-0.0765,-0.1203,-0.1274,-0.1308,-0.1409,-0.1385,0,0,0,0,0]},{"header":{"parameterUnit":"m.s-1","parameterCategory":2,"la1":30.2991,"la2":30.254,"lo1":-89.0895,"lo2":-89.0444,"dy":0.0017,"dx":0.0017,"nx":28,"ny":28,"refTime":"2025-09-13T21:00:00:Z","depth":"2","parameterNumber":3,"parameterNumberName":"V-component_of_CURRENTS"},"data":[0,0,0,0,0,0,0,0,0,0,0,0,0,0,0,0,0,0,0,0,0,0,0,0,0,0,0,0,0,0,0,0,0,0,0,0,0,0,0,0,0,0,0,0,0,0,0,0,0,0,0,0,0,0,0,0,0,0,-0.0307,-0.0307,0,-0.0222,-0.0221,-0.0219,-0.0137,-0.0137,-0.0136,-0.0135,0.0023,0.0026,0.0029,0,0,0,0,0,0,0,0,0,0,0,0,0,-0.035,-0.0349,-0.0307,-0.0307,-0.0306,-0.0222,-0.022,-0.0219,-0.0138,-0.0137,-0.0136,-0.0135,0.0021,0.0025,0.003,0,0,0,0,0,0,0,0,0,0,0,0,0,-0.0302,-0.0349,-0.0307,-0.0257,-0.0252,-0.0222,-0.022,-0.0219,-0.0138,-0.0137,-0.0136,-0.0134,0.002,0.0025,0.003,0.0039,0,0,0.0046,0.0048,0,0,0,0,0,0,0,0,-0.0305,-0.03,-0.0265,-0.0261,-0.0255,-0.0192,-0.0178,-0.013,-0.0138,-0.0178,-0.0135,-0.0134,-0.0045,-0.0035,-0.0018,0.0047,0.0054,0.0047,0.005,0.0052,0.0054,0,0,0,0,0,0,0,-0.0308,-0.0303,-0.027,-0.0265,-0.0258,-0.0222,-0.0214,-0.0168,-0.0116,-0.0174,-0.0169,-0.0165,-0.0041,-0.0023,-0.0013,0.0056,0.0047,0.0051,0.0054,0.0056,0.0231,0.0232,0,0,0,0,0,0,-0.0329,-0.0307,-0.0273,-0.0268,-0.0281,-0.0223,-0.0213,-0.0211,-0.0117,-0.0103,-0.0166,-0.0161,-0.0033,-0.002,-0.0007,0.0041,0.0052,0.0057,0.006,0.0229,0.0231,0.0233,0,0,0,0,0,0,-0.033,-0.0327,-0.0277,-0.0287,-0.0279,-0.0224,-0.0221,-0.021,-0.0187,-0.0112,-0.0096,-0.0155,-0.0031,-0.0015,0.0051,0.0047,0.0059,0.0064,0.0228,0.023,0.0232,0.0118,0,0,0,0,0,0,-0.0332,-0.0328,-0.0335,-0.0289,-0.0279,-0.0266,-0.0222,-0.0209,-0.0188,-0.0181,-0.0097,-0.0082,-0.0029,0.0043,0.0056,0.0054,0.0068,0.0226,0.0229,0.0231,0.012,0.0116,0.0113,0,0,0,0,0,-0.0334,-0.0349,-0.0336,-0.0332,-0.029,-0.0267,-0.0259,-0.0213,-0.0189,-0.0187,-0.0114,-0.0084,0.0071,0.0048,0.0063,0.0062,0.0224,0.0228,0.0231,0.0122,0.0117,0.0113,0,0,0,0,0,0,-0.0369,-0.0341,-0.0325,-0.0331,-0.0306,-0.0255,-0.0249,-0.022,-0.0164,-0.0152,-0.0074,-0.0053,0.0005,0.0058,0.0031,0.0129,0.0156,0.0162,0.0068,0.0064,0.0061,0.0022,0.0072,0,0,0,0,0,-0.0384,-0.0388,-0.0353,-0.0358,-0.0348,-0.0301,-0.0286,-0.0259,-0.0205,-0.018,-0.0116,-0.0038,0.003,0.0064,0.0131,0.0172,0.0214,0.0191,0.0187,0.0183,0.0167,0.0229,0.0228,0.0244,0.0244,0.0244,0,0,-0.0401,-0.0386,-0.0389,-0.0367,-0.034,-0.0332,-0.0288,-0.0274,-0.0263,-0.0172,-0.0126,-0.0053,0.0041,0.0096,0.0127,0.0138,0.0205,0.0187,0.0183,0.0169,0.0233,0.023,0.0229,0.0246,0.0246,0.0245,0,0,-0.0438,-0.0422,-0.0437,-0.042,-0.0394,-0.0363,-0.0363,-0.0313,-0.0286,-0.0239,-0.0162,-0.0097,0.0006,0.0065,0.0111,0.0128,0.0184,0.0165,0.0108,0.0168,0.0166,0.0165,0.0214,0.0218,0.0162,0.0161,0.0161,0,-0.0459,-0.0467,-0.0439,-0.0443,-0.043,-0.038,-0.0385,-0.0356,-0.029,-0.026,-0.0234,-0.0074,-0.0013,0.006,0.0066,0.0112,0.016,0.0104,0.0157,0.0157,0.0157,0.0209,0.0214,0.0156,0.0157,0.0157,0.0158,0,-0.0504,-0.0505,-0.051,-0.0497,-0.0483,-0.0479,-0.0438,-0.0412,-0.0367,-0.0323,-0.0244,-0.0155,-0.0059,-0.0028,0.0018,0.0064,0.0101,0.0139,0.0149,0.0148,0.0204,0.0211,0.0149,0.0151,0.0152,0.0154,0,0,-0.0559,-0.0544,-0.0545,-0.0542,-0.0508,-0.05,-0.0482,-0.044,-0.0418,-0.035,-0.0306,-0.021,-0.0158,-0.0102,-0.0032,0.0008,0.0039,0.0062,0.0068,0.0078,0.0171,0.0203,0.0215,0.0088,0.0089,0.009,0.0206,0,-0.0596,-0.0616,-0.0596,-0.0604,-0.0605,-0.0553,-0.0538,-0.0495,-0.0441,-0.0386,-0.03,-0.0229,-0.0186,-0.0141,-0.0098,0.0016,0.0056,0.0003,0.0201,0.0206,0.0207,0.0224,0.021,0.0314,0.0214,0.0215,0.0216,0,-0.0644,-0.0647,-0.0666,-0.0645,-0.064,-0.0638,-0.059,-0.0572,-0.0489,-0.0444,-0.0367,-0.0287,-0.0211,-0.0177,-0.0023,-0.0053,0.0039,0.0116,0.0123,0.0193,0.0253,0.0306,0.0332,0.023,0.0229,0.0228,0.0227,0,-0.0691,-0.0692,-0.0706,-0.07,-0.0673,-0.0668,-0.0648,-0.0585,-0.0565,-0.0479,-0.0443,-0.0331,-0.0266,-0.0147,0.0001,-0.0002,0.0173,0.0198,0.0313,0.0317,0.0363,0.0369,0.0297,0.0296,0.0296,0.0296,0.0295,0,-0.0732,-0.0742,-0.073,-0.0737,-0.0752,-0.0716,-0.0714,-0.0674,-0.0615,-0.0584,-0.0482,-0.0423,-0.0256,-0.0129,-0.0004,0.0177,0.0176,0.0299,0.0349,0.0326,0.0328,0.0303,0.0302,0.03,0.0299,0.0298,0.0298,0,-0.0777,-0.0768,-0.0788,-0.0776,-0.0777,-0.0789,-0.0772,-0.0764,-0.0702,-0.0658,-0.0633,-0.0483,-0.0312,-0.014,0.0072,0.0177,0.0344,0.041,0.0364,0.0405,0.0446,0.0439,0.0545,0.0547,0.0549,0.055,0.0551,0,-0.0799,-0.0814,-0.0829,-0.0851,-0.085,-0.086,-0.0866,-0.0817,-0.0802,-0.0687,-0.0665,-0.0491,-0.0348,-0.0033,0.0185,0.0418,0.0409,0.0532,0.0515,0.0433,0.0472,0.0462,0.0452,0.0538,0.0539,0.054,0.0541,0,-0.0838,-0.0845,-0.0861,-0.091,-0.0932,-0.0953,-0.0951,-0.0953,-0.0879,-0.0806,-0.0673,-0.0545,-0.0243,0.0028,0.0317,0.0447,0.049,0.0557,0.0509,0.0469,0.0435,0.047,0.046,0.0548,0.0548,0.0547,0.0547,0.0546,-0.0862,-0.0891,-0.0918,-0.0961,-0.0997,-0.1027,-0.103,-0.0997,-0.0943,-0.0802,-0.068,-0.0447,-0.021,0.0223,0.0416,0.0591,0.0587,0.0636,0.0631,0.0625,0.0595,0.0565,0.0697,0.0697,0.0697,0.0697,0.0697,0,-0.0882,-0.0915,-0.0965,-0.1014,-0.1061,-0.1063,-0.1067,-0.1029,-0.0943,-0.078,-0.0601,-0.03,0.0,0.0231,0.0523,0.0692,0.0666,0.0708,0.0646,0.0639,0.0632,0.0599,0.0704,0.0705,0.0705,0.0705,0,0,-0.0892,-0.0938,-0.0966,-0.1046,-0.1085,-0.1106,-0.11,-0.101,-0.0887,-0.0688,-0.0499,-0.0257,0.002,0.0228,0.0436,0.0579,0.0559,0.0586,0.0568,0.0463,0.0454,0.0584,0.0525,0,0,0,0,0]}],[{"header":{"parameterUnit":"m.s-1","parameterCategory":2,"la1":30.2991,"la2":30.254,"lo1":-89.0895,"lo2":-89.0444,"dy":0.0017,"dx":0.0017,"nx":28,"ny":28,"refTime":"2025-09-13T21:00:00:Z","depth":"4","parameterNumber":2,"parameterNumberName":"U-component_of_CURRENTS"},"data":[0,0,0,0,0,0,0,0,0,0,0,0,0,0,0,0,0,0,0,0,0,0,0,0,0,0,0,0,0,0,0,0,0,0,0,0,0,0,0,0,0,0,0,0,0,0,0,0,0,0,0,0,0,0,0,0,0,0,-0.1494,-0.1495,0,-0.157,-0.157,-0.1571,-0.1592,-0.1591,-0.1591,-0.1591,-0.1676,-0.1679,-0.1681,0,0,0,0,0,0,0,0,0,0,0,0,0,-0.1359,-0.1361,-0.1494,-0.1496,-0.1497,-0.157,-0.157,-0.1571,-0.1592,-0.1591,-0.1591,-0.1591,-0.1675,-0.1678,-0.1681,0,0,0,0,0,0,0,0,0,0,0,0,0,-0.1421,-0.1362,-0.1494,-0.1518,-0.1522,-0.157,-0.157,-0.1571,-0.1592,-0.1591,-0.1591,-0.1591,-0.1675,-0.1678,-0.1682,-0.1707,0,0,-0.1692,-0.1694,0,0,0,0,0,0,0,0,-0.1418,-0.1426,-0.1514,-0.1517,-0.1521,-0.1574,-0.1554,-0.1619,-0.1592,-0.1561,-0.1591,-0.1591,-0.1645,-0.1651,-0.1661,-0.1711,-0.1715,-0.1693,-0.1695,-0.1696,-0.1697,0,0,0,0,0,0,0,-0.1413,-0.1423,-0.1521,-0.1515,-0.1519,-0.1523,-0.1531,-0.1566,-0.1601,-0.1564,-0.1567,-0.158,-0.1647,-0.1657,-0.1663,-0.1716,-0.1693,-0.1696,-0.1698,-0.1699,-0.1845,-0.1846,0,0,0,0,0,0,-0.1412,-0.1419,-0.1518,-0.1523,-0.1471,-0.1526,-0.1535,-0.1554,-0.1601,-0.1608,-0.1581,-0.1581,-0.1651,-0.1659,-0.1666,-0.174,-0.1696,-0.17,-0.1702,-0.1843,-0.1845,-0.1847,0,0,0,0,0,0,-0.1409,-0.1421,-0.1515,-0.1475,-0.1488,-0.1529,-0.155,-0.1556,-0.1589,-0.1614,-0.1621,-0.1611,-0.1652,-0.1661,-0.1722,-0.1742,-0.1701,-0.1705,-0.1841,-0.1844,-0.1846,-0.1862,0,0,0,0,0,0,-0.1405,-0.1419,-0.1441,-0.1475,-0.149,-0.1556,-0.1551,-0.1558,-0.1599,-0.1601,-0.1642,-0.1648,-0.1652,-0.1717,-0.1725,-0.1746,-0.1707,-0.1839,-0.1842,-0.1845,-0.1859,-0.1865,-0.187,0,0,0,0,0,-0.14,-0.1425,-0.1442,-0.1454,-0.1517,-0.1557,-0.1565,-0.159,-0.16,-0.1619,-0.1653,-0.1648,-0.1743,-0.1721,-0.1731,-0.1753,-0.1837,-0.1841,-0.1845,-0.1857,-0.1864,-0.187,0,0,0,0,0,0,-0.1374,-0.1431,-0.145,-0.1491,-0.1529,-0.1562,-0.1588,-0.1607,-0.1649,-0.166,-0.1676,-0.1686,-0.1737,-0.1755,-0.1731,-0.1807,-0.1787,-0.1793,-0.1793,-0.18,-0.1805,-0.1809,-0.171,0,0,0,0,0,-0.1382,-0.1418,-0.1466,-0.1501,-0.1524,-0.1562,-0.1587,-0.1609,-0.1646,-0.1665,-0.1696,-0.1732,-0.1758,-0.1788,-0.1812,-0.1868,-0.1863,-0.1888,-0.1893,-0.1898,-0.1909,-0.1931,-0.1939,-0.186,-0.186,-0.186,0,0,-0.1383,-0.1418,-0.1441,-0.1499,-0.1531,-0.157,-0.1576,-0.1624,-0.1655,-0.167,-0.1729,-0.175,-0.1776,-0.1823,-0.1849,-0.1845,-0.1913,-0.1902,-0.1905,-0.1915,-0.1936,-0.1943,-0.195,-0.1862,-0.1862,-0.1862,0,0,-0.1396,-0.1437,-0.1471,-0.1507,-0.1567,-0.1591,-0.1612,-0.1665,-0.1689,-0.175,-0.1758,-0.1799,-0.1857,-0.1873,-0.1888,-0.1944,-0.1931,-0.1956,-0.1997,-0.2018,-0.2024,-0.2029,-0.2005,-0.2008,-0.1969,-0.1969,-0.1969,0,-0.1397,-0.1447,-0.1486,-0.1526,-0.1564,-0.1604,-0.1648,-0.1676,-0.1742,-0.1775,-0.1773,-0.1864,-0.1875,-0.1931,-0.1943,-0.1953,-0.1954,-0.1965,-0.2022,-0.2028,-0.2033,-0.2007,-0.201,-0.197,-0.197,-0.197,-0.197,0,-0.1431,-0.1478,-0.1502,-0.1568,-0.1611,-0.1656,-0.1704,-0.1751,-0.1788,-0.182,-0.1891,-0.1914,-0.197,-0.1974,-0.1975,-0.2028,-0.201,-0.2013,-0.1999,-0.2042,-0.2011,-0.2014,-0.1972,-0.1972,-0.1971,-0.1971,0,0,-0.1409,-0.1509,-0.1519,-0.1566,-0.1641,-0.1684,-0.174,-0.1809,-0.186,-0.191,-0.1971,-0.201,-0.2033,-0.2052,-0.2061,-0.2083,-0.2095,-0.2073,-0.2073,-0.2034,-0.2118,-0.1954,-0.1941,-0.2116,-0.2117,-0.2119,-0.207,0,-0.1425,-0.1513,-0.1555,-0.1639,-0.1691,-0.1749,-0.1801,-0.1869,-0.1919,-0.1982,-0.2014,-0.2066,-0.2058,-0.2089,-0.2111,-0.2105,-0.2111,-0.2107,-0.2096,-0.2095,-0.1933,-0.1942,-0.2123,-0.2072,-0.2073,-0.2073,-0.2074,0,-0.1438,-0.1502,-0.1594,-0.1699,-0.1728,-0.1782,-0.1892,-0.194,-0.2021,-0.206,-0.2122,-0.2142,-0.2184,-0.2163,-0.2181,-0.2184,-0.2156,-0.2141,-0.2139,-0.1987,-0.1937,-0.2031,-0.2079,-0.2078,-0.2078,-0.2078,-0.2077,0,-0.1417,-0.1523,-0.1606,-0.1643,-0.1763,-0.1821,-0.1882,-0.1976,-0.2016,-0.211,-0.2143,-0.2207,-0.2222,-0.2231,-0.2188,-0.2199,-0.2181,-0.2187,-0.2009,-0.1996,-0.2151,-0.2146,-0.2192,-0.2192,-0.2193,-0.2193,-0.2193,0,-0.1412,-0.1478,-0.161,-0.1659,-0.1745,-0.1835,-0.1922,-0.1989,-0.2072,-0.2103,-0.218,-0.2192,-0.2243,-0.2231,-0.2206,-0.2095,-0.2191,-0.2007,-0.1977,-0.2155,-0.2151,-0.215,-0.2146,-0.2191,-0.2191,-0.2192,-0.2192,0,-0.1371,-0.1461,-0.1555,-0.1698,-0.1739,-0.1804,-0.1915,-0.196,-0.2057,-0.2095,-0.2119,-0.2181,-0.2151,-0.2161,-0.2147,-0.2078,-0.2017,-0.1953,-0.211,-0.2091,-0.1814,-0.1812,-0.1757,-0.1751,-0.1746,-0.1742,-0.1738,0,-0.1358,-0.141,-0.1562,-0.16,-0.1665,-0.1764,-0.181,-0.1932,-0.1961,-0.2054,-0.2045,-0.2062,-0.2075,-0.1914,-0.1955,-0.1882,-0.1859,-0.1821,-0.1847,-0.1795,-0.1773,-0.1779,-0.1783,-0.173,-0.1729,-0.1727,-0.1726,0,-0.1316,-0.1382,-0.145,-0.153,-0.1595,-0.1656,-0.1734,-0.1744,-0.1854,-0.1957,-0.1905,-0.1873,-0.1824,-0.1793,-0.1735,-0.1695,-0.1853,-0.1767,-0.1778,-0.1803,-0.1762,-0.1745,-0.1756,-0.1708,-0.1711,-0.1712,-0.1713,0,-0.1264,-0.1286,-0.137,-0.142,-0.1493,-0.1511,-0.158,-0.1597,-0.1642,-0.1749,-0.1719,-0.1735,-0.1792,-0.1691,-0.1647,-0.1583,-0.1566,-0.1531,-0.1555,-0.1575,-0.1537,-0.1459,-0.1278,0,0,0,0,0,-0.1194,-0.1199,-0.1244,-0.1292,-0.1358,-0.1396,-0.1498,-0.1567,-0.1676,-0.1586,-0.1648,-0.159,-0.1513,-0.1531,-0.1422,-0.1564,-0.1577,-0.1433,-0.1553,-0.1609,-0.163,-0.1602,0,0,0,0,0,0,-0.1144,-0.1184,-0.1198,-0.1165,-0.1165,-0.1222,-0.128,-0.1364,-0.133,-0.1441,-0.1401,-0.1482,-0.1427,-0.1527,-0.138,-0.1383,-0.1425,-0.1455,-0.1451,-0.1597,-0.1616,-0.1633,-0.1611,0,0,0,0,0]},{"header":{"parameterUnit":"m.s-1","parameterCategory":2,"la1":30.2991,"la2":30.254,"lo1":-89.0895,"lo2":-89.0444,"dy":0.0017,"dx":0.0017,"nx":28,"ny":28,"refTime":"2025-09-13T21:00:00:Z","depth":"4","parameterNumber":3,"parameterNumberName":"V-component_of_CURRENTS"},"data":[0,0,0,0,0,0,0,0,0,0,0,0,0,0,0,0,0,0,0,0,0,0,0,0,0,0,0,0,0,0,0,0,0,0,0,0,0,0,0,0,0,0,0,0,0,0,0,0,0,0,0,0,0,0,0,0,0,0,-0.0289,-0.0288,0,-0.026,-0.0259,-0.0259,-0.0231,-0.0231,-0.0231,-0.023,-0.016,-0.0158,-0.0156,0,0,0,0,0,0,0,0,0,0,0,0,0,-0.0294,-0.0294,-0.0289,-0.0288,-0.0288,-0.026,-0.0259,-0.0259,-0.0231,-0.0231,-0.0231,-0.023,-0.016,-0.0158,-0.0156,0,0,0,0,0,0,0,0,0,0,0,0,0,-0.0281,-0.0294,-0.0289,-0.0271,-0.0269,-0.026,-0.0259,-0.0259,-0.0231,-0.0231,-0.0231,-0.023,-0.0161,-0.0158,-0.0156,-0.015,0,0,-0.0149,-0.0148,0,0,0,0,0,0,0,0,-0.0282,-0.0281,-0.0274,-0.0272,-0.027,-0.0249,-0.0235,-0.0221,-0.0232,-0.0245,-0.023,-0.023,-0.0186,-0.0182,-0.0177,-0.0147,-0.0144,-0.0148,-0.0147,-0.0146,-0.0145,0,0,0,0,0,0,0,-0.0283,-0.0282,-0.0277,-0.0274,-0.0272,-0.0256,-0.0254,-0.0232,-0.0218,-0.0244,-0.0242,-0.024,-0.0185,-0.018,-0.0175,-0.0143,-0.0149,-0.0146,-0.0145,-0.0144,-0.0101,-0.0101,0,0,0,0,0,0,-0.0289,-0.0283,-0.0278,-0.0276,-0.0276,-0.0256,-0.0254,-0.0256,-0.0219,-0.0213,-0.024,-0.0239,-0.0184,-0.0178,-0.0173,-0.0168,-0.0146,-0.0144,-0.0142,-0.01,-0.0101,-0.0101,0,0,0,0,0,0,-0.029,-0.0289,-0.0279,-0.0279,-0.0276,-0.0257,-0.0259,-0.0256,-0.0252,-0.0216,-0.021,-0.0241,-0.0183,-0.0176,-0.0161,-0.0165,-0.0143,-0.0141,-0.01,-0.0101,-0.0101,-0.0157,0,0,0,0,0,0,-0.029,-0.029,-0.0297,-0.0279,-0.0277,-0.0282,-0.026,-0.0255,-0.0252,-0.0249,-0.0215,-0.0208,-0.0182,-0.0164,-0.0158,-0.0161,-0.0139,-0.01,-0.01,-0.0101,-0.0154,-0.0159,-0.0163,0,0,0,0,0,-0.029,-0.0305,-0.0298,-0.0298,-0.0287,-0.0283,-0.028,-0.0264,-0.0252,-0.0258,-0.0233,-0.0209,-0.0163,-0.0163,-0.0156,-0.0158,-0.0099,-0.01,-0.0101,-0.0153,-0.0158,-0.0163,0,0,0,0,0,0,-0.0313,-0.0303,-0.0295,-0.0306,-0.0299,-0.0279,-0.0283,-0.027,-0.0255,-0.0252,-0.0215,-0.0207,-0.0197,-0.017,-0.017,-0.0147,-0.0126,-0.0125,-0.0168,-0.0173,-0.0177,-0.0163,-0.0137,0,0,0,0,0,-0.0322,-0.0329,-0.0315,-0.0325,-0.0322,-0.0303,-0.03,-0.0289,-0.0273,-0.0266,-0.0242,-0.0214,-0.0194,-0.0178,-0.0159,-0.0145,-0.0095,-0.014,-0.0145,-0.0148,-0.0132,-0.0056,-0.0051,-0.0103,-0.0103,-0.0103,0,0,-0.0333,-0.0328,-0.0333,-0.033,-0.0321,-0.0325,-0.03,-0.0301,-0.0301,-0.026,-0.0255,-0.0232,-0.0195,-0.0184,-0.0176,-0.016,-0.0113,-0.0149,-0.0153,-0.0134,-0.0056,-0.0051,-0.0046,-0.0104,-0.0104,-0.0104,0,0,-0.036,-0.0356,-0.037,-0.0366,-0.0359,-0.0347,-0.035,-0.0334,-0.0324,-0.032,-0.0288,-0.0263,-0.0241,-0.0206,-0.0187,-0.02,-0.0144,-0.02,-0.0202,-0.013,-0.0124,-0.0119,-0.0073,-0.0063,-0.0195,-0.0195,-0.0195,0,-0.0374,-0.0387,-0.0375,-0.0385,-0.0382,-0.036,-0.0371,-0.0361,-0.0343,-0.0324,-0.0327,-0.0266,-0.0246,-0.0203,-0.0214,-0.0207,-0.0163,-0.019,-0.0134,-0.0127,-0.012,-0.0074,-0.0062,-0.0198,-0.0198,-0.0197,-0.0197,0,-0.0409,-0.0418,-0.0426,-0.0429,-0.0428,-0.0433,-0.0417,-0.041,-0.0396,-0.0373,-0.0336,-0.0303,-0.0257,-0.0256,-0.0242,-0.0187,-0.0173,-0.0155,-0.012,-0.0118,-0.0071,-0.0057,-0.0202,-0.0201,-0.02,-0.0199,0,0,-0.0438,-0.0448,-0.0451,-0.0455,-0.0449,-0.045,-0.0447,-0.0426,-0.0409,-0.0385,-0.035,-0.032,-0.0283,-0.0258,-0.0229,-0.017,-0.011,-0.0147,-0.0142,-0.0101,0.0039,0.0012,0.0024,-0.0078,-0.0075,-0.0073,0.0045,0,-0.0465,-0.0494,-0.0489,-0.0509,-0.0517,-0.0492,-0.0489,-0.0464,-0.0437,-0.04,-0.0338,-0.0305,-0.0289,-0.027,-0.0207,-0.0137,-0.0072,-0.0144,0.0031,0.0036,0.0014,0.004,-0.0065,0.0055,0.0058,0.006,0.0062,0,-0.0497,-0.0509,-0.0538,-0.0535,-0.0536,-0.0546,-0.0518,-0.0513,-0.045,-0.0423,-0.036,-0.0312,-0.0234,-0.0221,-0.007,-0.0117,-0.0038,0.0021,0.0028,0.0039,0.0036,0.006,0.0087,0.0085,0.0084,0.0082,0.008,0,-0.052,-0.0539,-0.0562,-0.0564,-0.0563,-0.0565,-0.0561,-0.0518,-0.0505,-0.0433,-0.0407,-0.0299,-0.0252,-0.0131,-0.0026,-0.0038,0.0145,0.0146,0.0205,0.0203,0.0216,0.0209,0.0281,0.0281,0.028,0.028,0.028,0,-0.0542,-0.056,-0.0578,-0.059,-0.0611,-0.0596,-0.0601,-0.0575,-0.053,-0.0503,-0.0422,-0.0369,-0.0223,-0.0111,-0.0008,0.0132,0.0166,0.0219,0.0243,0.0184,0.0173,0.0224,0.0216,0.0284,0.0283,0.0283,0.0282,0,-0.0563,-0.0575,-0.0606,-0.0619,-0.0628,-0.0645,-0.065,-0.0643,-0.0597,-0.0557,-0.0535,-0.0409,-0.0264,-0.012,0.0075,0.0143,0.0284,0.0332,0.0247,0.026,0.0288,0.0276,0.0412,0.0413,0.0413,0.0413,0.0413,0,-0.0575,-0.0595,-0.0638,-0.0666,-0.068,-0.0703,-0.0715,-0.0685,-0.0671,-0.0577,-0.0551,-0.0408,-0.0312,-0.005,0.0089,0.0295,0.0321,0.0383,0.0351,0.0299,0.0308,0.0295,0.0283,0.0414,0.0414,0.0414,0.0414,0,-0.0594,-0.0618,-0.0644,-0.0705,-0.0739,-0.0766,-0.0775,-0.0768,-0.0713,-0.0675,-0.0537,-0.0395,-0.0229,-0.0041,0.0116,0.0262,0.0332,0.0386,0.0387,0.0357,0.0302,0.0308,0.0295,0.0415,0.0414,0.0414,0.0414,0,-0.0609,-0.0638,-0.0682,-0.073,-0.0783,-0.0807,-0.0809,-0.0765,-0.0735,-0.0621,-0.0573,-0.0384,-0.0267,-0.0057,0.0089,0.0223,0.0253,0.0284,0.029,0.0291,0.0208,0.0117,0.021,0,0,0,0,0,-0.0612,-0.0648,-0.0701,-0.0753,-0.0808,-0.083,-0.0836,-0.0822,-0.0768,-0.0672,-0.0615,-0.0451,-0.021,-0.0099,0.0035,0.0066,0.0249,0.0223,0.028,0.0419,0.0418,0.0338,0,0,0,0,0,0,-0.0618,-0.0671,-0.0697,-0.076,-0.08,-0.0845,-0.0849,-0.0814,-0.0744,-0.067,-0.0532,-0.0439,-0.0203,-0.0283,0.0033,0.0073,0.0122,0.0343,0.0346,0.042,0.0419,0.0418,0.0335,0,0,0,0,0]}]]